Location: Invercargill
(46.4000°S, 168.3500°E)
Time: 09:55:59
(UTC+13:00)

ERBS - Pass Details

Date: 24 January 2019
Orbit: 418 x 432 km, 57.0° (Epoch: 19 February)

Event Time Altitude Azimuth Distance (km) Brightness Sun altitude
Rises 22:28:19 0° 229° (SW) 2,446 8.6 -9.0°
Reaches altitude 10° 22:30:30 10° 222° (SW) 1,572 6.8 -9.3°
Maximum altitude 22:33:54 45° 148° (SSE) 621 3.2 -9.8°
Enters shadow 22:36:55 12° 75° (ENE) 1,421 4.4 -10.2°
